Regional Weather Roundup
Issued by NWS Newport/Morehead, NC

Current Version | Previous Version | Graphics & Text | Print | Product List | Glossary Off
Versions: 1 2 3 4 5 6 7 8 9 10 11 12 13 14 15 16 17 18 19 20 21 22 23 24 25 26 27 28 29 30 31 32 33 34 35 36 37 38 39 40 41 42 43 44 45 46 47 48 49 50

000
ASUS42 KMHX 281010
RWRMHX
WEATHER ROUNDUP FOR EASTERN NORTH CAROLINA
NATIONAL WEATHER SERVICE NEWPORT/MOREHEAD CITY NC
600 AM EDT MON JUL 28 2014

NOTE: "FAIR" INDICATES FEW OR NO CLOUDS BELOW 12,000 FEET
WITH NO SIGNIFICANT WEATHER AND/OR OBSTRUCTIONS TO VISIBILITY

NCZ015>017-031-032-045>047-102-103-281100-
NORTH COAST

CITY           SKY/WX    TMP DP  RH WIND       PRES   REMARKS
EDENTON        CLOUDY    81  73  76 SW8       29.72S
ELIZABETH CITY CLOUDY    80  73  79 SW12      29.70R
KITTY HAWK     PTSUNNY   81  75  82 SW10G16   29.71R
MANTEO         NOT AVBL

$$

NCZ045>047-081-094-103-104-281100-
CENTRAL COAST

CITY           SKY/WX    TMP DP  RH WIND       PRES   REMARKS
FRISCO         CLOUDY    81  80  97 SW17G26   29.77R FOG
SWANQUARTER      N/A     82 N/A N/A SW13G20   29.71S

$$

NCZ095-097-098-100-101-281100-
SOUTHERN COAST

CITY           SKY/WX    TMP DP  RH WIND       PRES   REMARKS
BEAUFORT       PTCLDY    83  79  88 SW14        N/A
CEDAR ISLAND     N/A     82 N/A N/A S10G18    29.82R
JACKSONVILLE   MOCLDY    81  73  76 SW7       29.78S
NEWPORT        NOT AVBL
PINEY ISLAND   MOSUNNY   84  80  88 SW12      29.77R
WILMINGTON     PTCLDY    82  73  74 SW10      29.80R


$$

NCZ011>013-027>030-043-044-078>080-089-090>093-098-281100-
COASTAL PLAIN

CITY           SKY/WX    TMP DP  RH WIND       PRES   REMARKS
AHOSKIE        CLOUDY    76  70  81 CALM      29.70F
CLINTON        CLOUDY    81  73  76 CALM      29.78S
ELIZABETHTOWN  CLOUDY    82  72  71 W6        29.80S
GOLDSBORO      CLOUDY    80  71  74 SW10      29.73F
GREENVILLE     CLOUDY    79  72  78 SW7       29.75F
HAVELOCK       MOCLDY    81  74  79 SW9       29.79R
KENANSVILLE    CLOUDY    80  71  75 SW3       29.78S
KINSTON        CLOUDY    81  70  69 SW7       29.76S
NEW BERN       MOCLDY    82  73  74 SW8       29.78R
RICHLANDS      CLOUDY    79  72  78 SW6       29.78S
ROANOKE RAPIDS NOT AVBL
ROCKY MOUNT    CLOUDY    79  64  60 SW8       29.73S
WASHINGTON     CLOUDY    79  73  82 SW6       29.74R
WHITEVILLE     MOCLDY    80  73  77 W3        29.81S

$$

AMZ130-135-150-152-154-156-158-170-250-252-270-ANZ085-086-088-633-658-670-281100-
MARINE OBSERVATIONS

STATION/POSITION TIME  TEMP    WIND        PRES    WAVE   SWELL
                       AIR SEA DIR/SP/G            HT/PER HT/PER
                 (UTC) (F)     (DEG/KT/KT) (MB)    (FT/S) (FT/S)
CHESAPEAKE LIGHT NOT AVBL
BUOY 44014       1000   80 78  220/ 19/ 23 1004.2    4/ 5   2/ 8
DUCK             1000   82 63  220/ 17/ 24 1005.1
2E DUCK          1000                        N/A     2/ 8
OREGON INLET     1000   82 82  220/ 20/ 24 1006.4
BUOY 44095       1000      78                N/A     5/ 5
20E OREGON INLET NOT AVBL
HATTERAS CG      1000   81 82  230/ 15/ 22 1008.4
DIAMOND BUOY     1000          VRB 23/ 27  1007.6    6/ 6   2/ 9
CAPE LOOKOUT     0900   83     230/ 16/ 22 1008.7
BEAUFORT LAB     1000   83 83  230/  7/ 11 1008.5
30 SE NEW RIVER  1000   83 81  240/ 17/ 23 1009.4    7/ 6
5 SE WRIGHTSVILL 0900   80 82  240/ 17/ 19   N/A
BUOY 41002       0909   81 80  240/ 16/ 19 1014.8    6/ 7   2/ 9
BUOY 41004       1000   84 83  240/ 17/ 19 1011.0    5/ 6   2/10

$$


USA.gov is the U.S. government's official web portal to all federal, state and local government web resources and services.